Regional Weather Roundup
Issued by NWS

Home | Current Version | Previous Version | Text Only | Print | Product List | Glossary Off
Versions: 1 2 3 4 5 6 7 8 9 10 11 12 13 14 15 16 17 18 19 20 21 22 23 24 25 26 27

000
ASUS45 KTFX 030810
RWRMT
MONTANA REGIONAL WEATHER ROUNDUP
NATIONAL WEATHER SERVICE GREAT FALLS MT
200 AM MDT TUE MAY 03 2016

NOTE: "FAIR" INDICATES FEW OR NO CLOUDS BELOW 12000 FEET WITH NO
SIGNIFICANT WEATHER AND/OR OBSTRUCTIONS TO VISIBILITY.

MTZ001>007-043-030900-
WEST OF THE DIVIDE

CITY           SKY/WX    TMP DP  RH WIND       PRES   REMARKS
KALISPELL      CLEAR     41  40  96 CALM      30.09R
MISSOULA       CLEAR     48  37  65 NE3       30.13R
BUTTE          CLEAR     38  27  64 SE5       30.21R
MULLAN PASS    CLEAR     55  29  36 CALM      30.20S
$$

MTZ008-052>055-030900-
SOUTHWEST MONTANA

CITY           SKY/WX    TMP DP  RH WIND       PRES   REMARKS
BOZEMAN        CLEAR     41  30  65 SE5       30.17S
DILLON         CLEAR     43  28  55 S13       30.18R
ENNIS          CLEAR     34  23  64 CALM      30.25S
$$

MTZ009-010-012-014-046-048-049-054-030900-
EAST SLOPES AND CENTRAL MONTANA

CITY           SKY/WX    TMP DP  RH WIND       PRES   REMARKS
CUT BANK       CLEAR     49  36  61 SE7       30.10S
GREAT FALLS    CLEAR     42  33  70 SW7       30.11S
MALMSTROM AFB  CLEAR     41  35  79 S8        30.11S
HELENA         CLEAR     49  25  39 CALM      30.13S
$$

MTZ011-013-016-021-045-047-050-051-030900-
NORTH CENTRAL MONTANA

CITY           SKY/WX    TMP DP  RH WIND       PRES   REMARKS
HAVRE          CLEAR     45  40  82 SW6       30.07S
LEWISTOWN      CLEAR     43  32  65 SE5       30.14F
N BAR RANCH      N/A     45  32  61 W9        30.17F
$$

MTZ017>020-022>027-061-062-030900-
NORTHEAST MONTANA

CITY           SKY/WX    TMP DP  RH WIND       PRES   REMARKS
GLASGOW        CLEAR     49  37  63 N6        30.04R
JORDAN           N/A     46  42  86 W7        30.06S
SIDNEY         CLEAR     41  32  70 CALM      30.03S
WOLF POINT     CLEAR     44  37  76 CALM      30.03S
$$

MTZ028>42-056>058-030900-
SOUTHCENTRAL AND SOUTHEAST MONTANA

CITY           SKY/WX    TMP DP  RH WIND       PRES   REMARKS
BAKER          CLEAR     42  34  73 CALM      30.06F
BILLINGS       CLEAR     55  35  47 SW12      30.13F
LIVINGSTON     CLEAR     40  30  67 NW5       30.18R
MILES CITY     CLEAR     51  41  68 W8        30.05F
$$

REGIONAL REPORTS...DAKOTAS

CITY           SKY/WX    TMP DP  RH WIND       PRES   REMARKS
WILLISTON      CLEAR     42  34  73 CALM      30.01F
MINOT          CLOUDY    56  36  47 SW12      29.97S
DICKINSON      CLEAR     36  30  79 W6        30.02R WCI  31
BEACH            N/A     39  36  87 S3        30.07F
CROSBY           N/A     39  30  70 CALM      30.02S
TIOGA            N/A     39  36  87 CALM      30.05F
WATFORD CITY     N/A     41  36  81 SW3       30.02S
BISMARCK       CLOUDY    40  40 100 CALM      30.01F
GRAND FORKS    CLOUDY    52  36  54 W12       29.91F
FARGO          CLOUDY    46  35  65 W7        29.94F
BUFFALO SD       N/A     42  33  70 W8        30.00S
RAPID CITY     CLEAR     39  34  82 NW9       30.06F
$$

REGIONAL REPORTS...WYOMING/IDAHO/WASHINGTON

CITY           SKY/WX    TMP DP  RH WIND       PRES   REMARKS
GILLETTE       CLEAR     45  36  70 W14       30.12S
SHERIDAN       CLEAR     43  33  68 S3        30.14S
BUFFALO WY       N/A    N/A N/A N/A MISG      30.17F
CODY           CLEAR     46  30  53 SW7       30.18F
YELLOWSTONE LA   N/A     28  22  78 CALM      30.32S
IDAHO FALLS    CLEAR     42  29  59 CALM      30.21R
SALMON         CLEAR     43  30  61 CALM      30.15S
BOISE          CLEAR     56  32  40 SE8       30.10S
SPOKANE        CLEAR     57  41  55 CALM      30.05S
$$

REGIONAL REPORTS...ALBERTA

CITY           SKY/WX    TMP DP  RH WIND       PRES   REMARKS
EDMONTON       PTCLDY    59  37  44 S8        29.96S
CALGARY        PTCLDY    54  32  43 S3        30.02S
LETHBRIDGE     CLEAR     55  32  41 S23       30.03F
MEDICINE HAT   CLEAR     48  41  76 S3        30.04S
WATERTON GATE    N/A     50  30  46 S12         N/A
MILK RIVER       N/A     46  37  71 SE6         N/A
ONEFOUR          N/A     57  37  47 NE1         N/A
$$

REGIONAL REPORTS...SASKATCHEWAN

CITY           SKY/WX    TMP DP  RH WIND       PRES   REMARKS
SWIFT CURRENT  CLEAR     52  34  50 S10       30.04S
REGINA         CLEAR     45  27  49 W5        30.00S
SASKATOON      CLEAR     48  41  76 VRB2      30.02R
CYPRESS HILLS    N/A     55  32  41 SW2         N/A
VAL MARIE        N/A     41  36  81 N1          N/A
ROCKGLEN         N/A     54  32  43 W6          N/A
ASSINIBOIA       N/A     50  39  66 S7          N/A
$$




USA.gov is the U.S. government's official web portal to all federal, state and local government web resources and services.